Regional Weather Roundup
Issued by NWS

Home | Current Version | Previous Version | Graphics & Text | Print | Product List | Glossary Off
Versions: 1 2 3 4 5 6 7 8 9 10 11 12 13 14 15 16 17 18 19 20 21 22 23 24 25 26 27 28 29 30 31 32 33 34 35 36 37 38 39 40 41 42 43 44 45 46 47 48 49 50

000
ASUS43 KMKX 200720
RWRWI

WISCONSIN REGIONAL WEATHER ROUNDUP
NATIONAL WEATHER SERVICE MILWAUKEE/SULLIVAN WI
200 AM CDT FRI APR 20 2018

NOTE: "FAIR" INDICATES FEW OR NO CLOUDS BELOW 12,000 FEET WITH NO
SIGNIFICANT WEATHER AND/OR OBSTRUCTIONS TO VISIBILITY.

WIZ001-002-006>008-014>016-023>028-200800-
NORTHWEST WISCONSIN

CITY           SKY/WX    TMP DP  RH WIND       PRES   REMARKS
SUPERIOR ARPT  FAIR      33  18  53 SW7       30.42R WCI  27
ASHLAND        FAIR      37  15  40 SW9       30.41R WCI  30
HAYWARD        FAIR      25  18  74 CALM      30.44R
SIREN          FAIR      34  24  65 CALM      30.45R
CUMBERLAND     FAIR      30  19  64 CALM      30.44S
RICE LAKE      FAIR      26  25  94 CALM      30.46S
CHETEK         FAIR      26  22  85 CALM      30.46R
LADYSMITH      FAIR      26  20  77 CALM      30.45R
EAU CLAIRE     FAIR      28  23  81 S3        30.45R
MENOMONIE      FAIR      31  23  73 CALM      30.46S
NEW RICHMOND   FAIR      27  23  82 CALM      30.46S
OSCEOLA        FAIR      28  23  80 CALM      30.49R
$$

WIZ003>005-009-010-017-018-200800-
NORTH CENTRAL WISCONSIN

CITY           SKY/WX    TMP DP  RH WIND       PRES   REMARKS
MANITOWISH WTR FAIR      19  14  78 CALM      30.40S
ARBOR VITAE    FAIR      24  15  66 CALM      30.40S
WOODRUFF       FAIR      24  15  66 CALM      30.40S
RHINELANDER    FAIR      21  11  65 W3        30.40S
EAGLE RIVER    FAIR      20  14  76 CALM      30.40S
LAND O LAKES   FAIR      17  11  79 CALM      30.41S
PHILLIPS       FAIR      21  19  91 CALM      30.42R
TOMAHAWK       FAIR      19  14  79 CALM      30.42S
MEDFORD        FAIR      25  18  76 CALM      30.42S
MERRILL          N/A     23  16  76 CALM      30.43S
$$

WIZ029-030-035-036-043>047-200800-
CENTRAL WISCONSIN

CITY           SKY/WX    TMP DP  RH WIND       PRES   REMARKS
WAUSAU         FAIR      28  23  81 NW6       30.41S WCI  22
MOSINEE        FAIR      30  19  64 NW5       30.43S WCI  25
MARSHFIELD     FAIR      29  16  58 NW7       30.41S WCI  22
STEVENS POINT  FAIR      23  21  89 CALM      30.44S
WAUPACA        FAIR      35  20  56 CALM      30.43S
WAUTOMA        FAIR      34  18  52 W3        30.44S
WISC RAPIDS    FAIR      25  17  72 CALM      30.44S
CAMP DOUGLAS   FAIR      24  21  91 CALM      30.44S
$$

WIZ011>013-019>022-031-037>040-048>050-200800-
NORTHEAST WISCONSIN

CITY           SKY/WX    TMP DP  RH WIND       PRES   REMARKS
ANTIGO         FAIR      24  15  69 CALM      30.41S
SHAWANO        FAIR      29  21  71 CALM      30.42S
OCONTO         FAIR      24  19  79 CALM      30.42S
STURGEON BAY   FAIR      32  14  47 S5        30.43R WCI  27
GREEN BAY      FAIR      29  22  75 CALM      30.42S
MANITOWOC      FAIR      27  23  85 CALM      30.43S
APPLETON       FAIR      32  18  55 CALM      30.41R
CLINTONVILLE   FAIR      27  20  75 CALM      30.43R
OSHKOSH        FAIR      33  19  56 W3        30.43R
$$

WIZ032>034-041-042-053>061-200800-
SOUTHWEST WISCONSIN

CITY           SKY/WX    TMP DP  RH WIND       PRES   REMARKS
LA CROSSE      FAIR      30  26  85 CALM      30.47R
SPARTA         FAIR      21  20  95 CALM      30.47S
VIROQUA        FAIR      33  23  66 W5        30.45S WCI  29
BOSCOBEL       FAIR      26  23  88 CALM      30.48S
PRAIRIE DU CHI FAIR      28  24  84 CALM      30.48S
PLATTEVILLE    FAIR      35  26  72 CALM      30.46S
$$

WIZ056-057-062-063-064-067-068-200800-
SOUTH CENTRAL WISCONSIN

CITY           SKY/WX    TMP DP  RH WIND       PRES   REMARKS
REEDSBURG      FAIR      25  25 100 CALM      30.46R
BARABOO/DELLS  FAIR      26  21  81 S3        30.45S
LONE ROCK      FAIR      23  22  96 CALM      30.47S
MINERAL POINT  FAIR      36  23  60 CALM      30.45R
MADISON        FAIR      26  22  84 CALM      30.45R
MIDDLETON      FAIR      28  26  89 CALM      30.45S
WATERTOWN      FAIR      24  21  91 CALM      30.44R
MONROE         FAIR      37  21  52 NW8       30.44S WCI  31
JANESVILLE     FAIR      30  30 100 CALM      30.45S
$$

WIZ051-052-058>065-066-070>072-200800-
SOUTHEAST WISCONSIN

CITY           SKY/WX    TMP DP  RH WIND       PRES   REMARKS
MILWAUKEE      FAIR      39  25  57 NW6       30.43R WCI  35
WAUKESHA       FAIR      32  23  69 W7        30.44S WCI  26
MILWAUKEE/TIMM FAIR      34  23  64 W3        30.44R
RACINE         FAIR      36  25  64 W7        30.44S WCI  30
BURLINGTON     FAIR      32  22  67 CALM      30.44S
KENOSHA        FAIR      35  25  66 W6        30.43R WCI  30
FOND DU LAC    FAIR      27  20  75 S6        30.43R WCI  20
SHEBOYGAN      FAIR      32  23  69 CALM      30.42R
WEST BEND      FAIR      34  23  64 W5        30.42S WCI  30
JUNEAU         MOCLDY    30  24  78 CALM      30.44S
$$

LSZ147-162-200800-
LAKE SUPERIOR

STATION/POSITION TIME  TEMP    WIND        PRES    WAVE
                       AIR SEA DIR/SP/G            HT/PER
                 (UTC) (F)     (DEG/KT/KT) (MB)    (FT/S)
DEVILS ISLAND    0700   44     230/ 11/ 12 1029.8R
SAXON HARBOR     0640   29     190/  3/  6 1028.8S
$$

LMZ867-665-643>646-200800-
LAKE MICHIGAN

STATION/POSITION TIME  TEMP    WIND        PRES    WAVE
                       AIR SEA DIR/SP/G            HT/PER
                 (UTC) (F)     (DEG/KT/KT) (MB)    (FT/S)
NORTHPORT PIER   0700   30                 1029.8
KEWAUNEE LAKESHO 0654   29     300/  6/  7 1029.4R
SHEBOYGAN LAKESH 0700   40     340/  2/  2 1030.7R
PORT WASHINGTON  0640   40     290/  7/ 11 1030.8R
MILWAUKEE LAKESH 0700   42     300/  9/ 11   N/A
KENOSHA   LAKESH 0700   39                 1030.5
$$

TC  - TEMPERATURE IN CELSIUS
VSB - VISIBILITY IN STATUTE MILES
WCI - WIND CHILL INDEX
HX  - HEAT INDEX





USA.gov is the U.S. government's official web portal to all federal, state and local government web resources and services.